Welcome to the New NWS' Forecast!
Most changes are behind the scenes, but click here for differences you might notice.

Regional Weather Roundup (RWR)

Issued by Gray - Portland, ME (GYX)

                            
960 
ASUS41 KGYX 131910
RWRGYX
WEATHER ROUNDUP FOR MAINE AND NEW HAMPSHIRE
NATIONAL WEATHER SERVICE GRAY ME
300 PM EDT MON AUG 13 2018

MEZ002-005-006-010-012-015-018-020-021-024-026-027-029-132000-
MAINE
  
CITY           SKY/WX    TMP DP  RH WIND       PRES   REMARKS
PORTLAND       CLOUDY    70  68  93 E6        30.07F                  
SANFORD        CLOUDY    71  67  87 E7        30.07F                  
BAR HARBOR     CLOUDY    69  62  78 E5        30.09F                  
WISCASSET      CLOUDY    75  69  81 VRB6      30.08F                  
ROCKLAND       CLOUDY    69  65  86 VRB6      30.08F                  
FRYEBURG       CLOUDY    73  69  87 CALM      30.09F                  
LEWISTONAUBURN CLOUDY    74  69  85 E3        30.08S                  
AUGUSTA        PTSUNNY   76  68  76 SE7       30.08F                  
WATERVILLE     PTSUNNY   77  69  76 CALM      30.05F                  
BANGOR         CLOUDY    76  67  73 SE7       30.09F                  
GREENVILLE       N/A     77  65  66 SE7       30.08F                  
MILLINOCKET    FAIR      81  66  60 VRB7      30.08F                  
HOULTON        FAIR      82  65  56 SW7       30.04F                  
PRESQUE ISLE   FAIR      83  63  50 SE7       30.05F HAZE             
FRENCHVILLE    FAIR      85  59  41 VRB5      30.04F                  
CARIBOU        FAIR      85  60  42 VRB3      30.04F                  
$$

NHZ002-005-008-009-011-012-014-132000-
NEW HAMPSHIRE
  
CITY           SKY/WX    TMP DP  RH WIND       PRES   REMARKS
ROCHESTER      CLOUDY    73  70  90 NE6       30.06F                  
MANCHESTER     CLOUDY    73  68  84 E7        30.03F                  
CONCORD        CLOUDY    74  68  81 N6        30.05F                  
LACONIA        CLOUDY    70  67  90 NE6       30.08F                  
PLYMOUTH       CLOUDY    71  66  84 CALM      30.07F                  
BERLIN         CLOUDY    79  68  69 S8        30.08F                  
WHITEFIELD     CLOUDY    76  68  76 E5        30.07F                  
JAFFREY        CLOUDY    69  68  96 CALM      30.07F FOG              
KEENE          CLOUDY   N/A N/A N/A VRB5      30.04F                  
LEBANON        CLOUDY    75  66  73 E3        30.05F                  
MT WASHINGTON  FOG       54  54 100 SE10        N/A  VSB 1/16         
$$

VTZ005-007-008-132000-
VERMONT
  
CITY           SKY/WX    TMP DP  RH WIND       PRES   REMARKS
ST JOHNSBURY     N/A     79  67  66 MISG      30.03F                  
MONTPELIER     CLOUDY    75  68  78 S6        30.10F                  
BURLINGTON     PTSUNNY   82  65  56 W7        30.01F                  
$$

MAZ007-012-024-CTZ003-RIZ002-NYZ038-NYZ072-132000-
SOUTHERN NEW ENGLAND AND NY
  
CITY           SKY/WX    TMP DP  RH WIND       PRES   REMARKS
BOSTON         CLOUDY    72  69  90 NE12      30.03F FOG              
WORCESTER      RAIN      66  66 100 NE8       30.05F VSB 3/4          
NANTUCKET      CLOUDY    70  69  97 NE9       30.00F                  
PROVIDENCE     LGT RAIN  72  72 100 NE10      30.00F FOG              
HARTFORD       LGT RAIN  72  71  97 NE8       29.99F FOG              
ALBANY         CLOUDY    79  69  71 NE7       30.00F                  
NEW YORK CITY  CLOUDY    75  70  84 NE16G23   29.92F                  
$$

ANZ081-ANZ082-ANZ150-NHZ014-MEZ023>029-132000-
COASTAL MARINE OBSERVATIONS
  
STATION/POSITION TIME  TEMP    WIND        PRES    WAVE
                       AIR SEA DIR/SP/G            HT/PER
                 (UTC) (F)     (DEG/KT/KT) (MB)    (FT/S)
MOUNT DESERT ROC 1900   61      40/ 10/ 10 1018.5F
MATINICUS ROCK   1800   62      40/ 13/ 13 1018.4F
ISLE OF SHOALS   1800   65      30/ 13/ 15 1017.5F
JEFFREYS LEDGE   1836      72                N/A     2/ 3
$$

.............KEY..............
   WCI - WIND CHILL
   TC  - TEMPERATURE IN CELSIUS
   VSB - VISIBILITY IN MILES
   HX  - HEAT INDEX
   FAIR- INDICATES FEW OR NO CLOUDS BELOW 12,000 FT, WITH NO 
         SIGNIFICANT WEATHER AND/OR OBSTRUCTIONS TO VISIBILITY.


  


000
ASUS41 KGYX 131910
RWRGYX
WEATHER ROUNDUP FOR MAINE AND NEW HAMPSHIRE
NATIONAL WEATHER SERVICE GRAY ME
300 PM EDT MON AUG 13 2018

MEZ002-005-006-010-012-015-018-020-021-024-026-027-029-132000-
MAINE
  
CITY           SKY/WX    TMP DP  RH WIND       PRES   REMARKS
PORTLAND       CLOUDY    70  68  93 E6        30.07F                  
SANFORD        CLOUDY    71  67  87 E7        30.07F                  
BAR HARBOR     CLOUDY    69  62  78 E5        30.09F                  
WISCASSET      CLOUDY    75  69  81 VRB6      30.08F                  
ROCKLAND       CLOUDY    69  65  86 VRB6      30.08F                  
FRYEBURG       CLOUDY    73  69  87 CALM      30.09F                  
LEWISTONAUBURN CLOUDY    74  69  85 E3        30.08S                  
AUGUSTA        PTSUNNY   76  68  76 SE7       30.08F                  
WATERVILLE     PTSUNNY   77  69  76 CALM      30.05F                  
BANGOR         CLOUDY    76  67  73 SE7       30.09F                  
GREENVILLE       N/A     77  65  66 SE7       30.08F                  
MILLINOCKET    FAIR      81  66  60 VRB7      30.08F                  
HOULTON        FAIR      82  65  56 SW7       30.04F                  
PRESQUE ISLE   FAIR      83  63  50 SE7       30.05F HAZE             
FRENCHVILLE    FAIR      85  59  41 VRB5      30.04F                  
CARIBOU        FAIR      85  60  42 VRB3      30.04F                  
$$

NHZ002-005-008-009-011-012-014-132000-
NEW HAMPSHIRE
  
CITY           SKY/WX    TMP DP  RH WIND       PRES   REMARKS
ROCHESTER      CLOUDY    73  70  90 NE6       30.06F                  
MANCHESTER     CLOUDY    73  68  84 E7        30.03F                  
CONCORD        CLOUDY    74  68  81 N6        30.05F                  
LACONIA        CLOUDY    70  67  90 NE6       30.08F                  
PLYMOUTH       CLOUDY    71  66  84 CALM      30.07F                  
BERLIN         CLOUDY    79  68  69 S8        30.08F                  
WHITEFIELD     CLOUDY    76  68  76 E5        30.07F                  
JAFFREY        CLOUDY    69  68  96 CALM      30.07F FOG              
KEENE          CLOUDY   N/A N/A N/A VRB5      30.04F                  
LEBANON        CLOUDY    75  66  73 E3        30.05F                  
MT WASHINGTON  FOG       54  54 100 SE10        N/A  VSB 1/16         
$$

VTZ005-007-008-132000-
VERMONT
  
CITY           SKY/WX    TMP DP  RH WIND       PRES   REMARKS
ST JOHNSBURY     N/A     79  67  66 MISG      30.03F                  
MONTPELIER     CLOUDY    75  68  78 S6        30.10F                  
BURLINGTON     PTSUNNY   82  65  56 W7        30.01F                  
$$

MAZ007-012-024-CTZ003-RIZ002-NYZ038-NYZ072-132000-
SOUTHERN NEW ENGLAND AND NY
  
CITY           SKY/WX    TMP DP  RH WIND       PRES   REMARKS
BOSTON         CLOUDY    72  69  90 NE12      30.03F FOG              
WORCESTER      RAIN      66  66 100 NE8       30.05F VSB 3/4          
NANTUCKET      CLOUDY    70  69  97 NE9       30.00F                  
PROVIDENCE     LGT RAIN  72  72 100 NE10      30.00F FOG              
HARTFORD       LGT RAIN  72  71  97 NE8       29.99F FOG              
ALBANY         CLOUDY    79  69  71 NE7       30.00F                  
NEW YORK CITY  CLOUDY    75  70  84 NE16G23   29.92F                  
$$

ANZ081-ANZ082-ANZ150-NHZ014-MEZ023>029-132000-
COASTAL MARINE OBSERVATIONS
  
STATION/POSITION TIME  TEMP    WIND        PRES    WAVE
                       AIR SEA DIR/SP/G            HT/PER
                 (UTC) (F)     (DEG/KT/KT) (MB)    (FT/S)
MOUNT DESERT ROC 1900   61      40/ 10/ 10 1018.5F
MATINICUS ROCK   1800   62      40/ 13/ 13 1018.4F
ISLE OF SHOALS   1800   65      30/ 13/ 15 1017.5F
JEFFREYS LEDGE   1836      72                N/A     2/ 3
$$

.............KEY..............
   WCI - WIND CHILL
   TC  - TEMPERATURE IN CELSIUS
   VSB - VISIBILITY IN MILES
   HX  - HEAT INDEX
   FAIR- INDICATES FEW OR NO CLOUDS BELOW 12,000 FT, WITH NO 
         SIGNIFICANT WEATHER AND/OR OBSTRUCTIONS TO VISIBILITY.